Regional Weather Roundup
Issued by NWS Upton, NY

Current Version | Previous Version | Graphics & Text | Print | Product List | Glossary Off
Versions: 1 2 3 4 5 6 7 8 9 10 11 12 13 14 15 16 17 18 19 20 21 22 23 24 25 26 27 28 29 30 31 32 33 34 35 36 37 38 39 40 41 42 43 44 45 46 47 48 49 50

648
ASUS41 KOKX 272308
RWROKX

REGIONAL WEATHER ROUNDUP
NATIONAL WEATHER SERVICE NEW YORK NY
700 PM EDT TUE SEP 27 2016

NOTE: "FAIR" INDICATES FEW OR NO CLOUDS BELOW 12,000 FEET WITH NO
SIGNIFICANT WEATHER AND/OR OBSTRUCTIONS TO VISIBILITY.

NYZ071-072-176-178-NJZ106-104-280000-
NEW YORK CITY METRO AREA

CITY           SKY/WX    TMP DP  RH WIND       PRES   REMARKS
Central Park   CLEAR     69  53  56 MISG      29.93R
LaGuardia APRT PTCLDY    71  60  68 S13       29.90R
Kennedy INTL   PTCLDY    69  61  75 S13       29.92R
Newark/Liberty PTCLDY    71  49  45 S6        29.90R
Bronx Bot Gard   N/A     68  55  64 E2        29.93R
Wall St Helipt CLEAR     72  63  73 S6        29.92R
Teterboro      CLEAR     71  48  43 W6        29.89R
$$

NYZ177-179-078>081-280000-
LONG ISLAND NEW YORK

CITY           SKY/WX    TMP DP  RH WIND       PRES   REMARKS
Farmingdale    CLEAR     68  60  75 S9        29.92R
MacArthur/ISP  PTCLDY    67  62  84 S5        29.92R
Shirley        PTCLDY    66  62  87 S5        29.93R
Riverhead      NOT AVBL
Westhampton    MOCLDY    65  61  87 CALM      29.94R
Southampton      N/A     68  64  88 SW3       29.89R
Bridgehampton    N/A     64  63  94 CALM      29.78S
East Hampton   CLOUDY    65  62  92 CALM      29.92R
Montauk          N/A     66  64  93 CALM      29.94R
$$

NYZ052-065-067-280000-
HUDSON VALLEY

CITY           SKY/WX    TMP DP  RH WIND       PRES   REMARKS
White Plains   CLEAR     64  56  75 CALM      29.91R
Newburgh       CLEAR     64  55  72 SW8       29.91S
Montgomery     CLEAR     62  55  77 CALM      29.90R
Poughkeepsie   CLEAR     62  54  74 SE3       29.89R
Albany         PTCLDY    64  50  60 CALM      29.91R
$$

NJZ001-105-106-008-010-013-015-019>022-104-280000-
NEW JERSEY

CITY           SKY/WX    TMP DP  RH WIND       PRES   REMARKS
Newark/Liberty PTCLDY    71  49  45 S6        29.90R
Teterboro      CLEAR     71  48  43 W6        29.89R
Caldwell       CLEAR     68  51  54 CALM      29.91R
Morristown     PTCLDY    63  55  77 CALM      29.91R
Somerville     CLEAR     64  53  67 CALM      29.89R
Linden         NOT AVBL
Sussex         CLEAR     60  55  83 CALM      29.91R
Abdover          N/A     60  54  80 CALM      29.92R
Trenton        CLEAR     71  48  43 SW3       29.90R
Millville      PTCLDY    65  62  90 S3        29.92S
Atlantic City  CLOUDY    67  61  81 S3        29.93R
Wrightstown    CLEAR     67  61  80 S6        29.89R
Toms River     PTCLDY    67  64  90 S5        29.92S
Belmar         CLOUDY    68  63  84 SE5       29.92R
$$

PAZ047>061-062-071-280000-
EASTERN PENNSYLVANIA

CITY           SKY/WX    TMP DP  RH WIND       PRES   REMARKS
Philadelphia   PTCLDY    72  53  51 S6        29.91R
Allentown      CLEAR     70  44  39 CALM      29.91R
Scranton       CLEAR     65  48  54 VRB3      29.91R
$$

CTZ002-004>006-009-010-012-RIZ004-006-007-MAZ004-011-015-280000-
SOUTHERN NEW ENGLAND
 IN CT

CITY           SKY/WX    TMP DP  RH WIND       PRES   REMARKS
Bradley INTL   PTCLDY    68  55  63 SE5       29.91R
Hartford       MOCLDY    65  60  84 SE3       29.90R
Danbury        CLEAR     61  55  81 SW5       29.93R
Wtrbury/Oxford PTCLDY   N/A N/A N/A S7        29.92F
Bridgeport     PTCLDY    70  59  68 S6        29.91R
Meriden        CLEAR     67  59  75 CALM      29.92R
New Haven      PTCLDY    65  59  81 S6        29.92R
Chester        FAIR      64  61  88 CALM      29.93R
Groton         PTCLDY    67  62  84 SE5       29.92R
Wilimantic     PTCLDY    68  62  81 SE5       29.93R

 IN RI

CITY           SKY/WX    TMP DP  RH WIND       PRES   REMARKS
Providence     MOCLDY    67  61  81 S8        29.93R
Block Island   CLOUDY    65  63  93 SW3       29.94R
Westerly       MOCLDY    66  60  81 SE3       29.93R
 IN MA

CITY           SKY/WX    TMP DP  RH WIND       PRES   REMARKS
Boston         PTCLDY    63  60  90 SE10      29.93R
Worcester      CLEAR     63  55  75 SW3       29.94R
Westfield      CLEAR     63  58  83 CALM      29.91R
Provincetown   CLOUDY    61  59  93 SE5       29.94R
Nantucket      CLOUDY    66  64  93 SW6       29.93R FOG
$$

ANZ330-335-338-340-345-350-353-355-280000-
COASTAL MARINE OBSERVATIONS


STATION/POSITION TIME  SKY/WX   TEMP    WIND        PRES    VSBY  WAVE
                                AIR SEA DIR/SP/G                  HT/PER
                 (UTC)          (F)     (DEG/KT/KT) (MB)    (MI)  (FT/S)
NY HARB ENTRANCE 2150            69 72  180/  8/ 10 1012.5          4/ 6
20S FIRE ISLAND  2150            68 70  230/  6/  6 1012.4          4/ 8
GREAT SOUTH BAY  2230            69 70  210/ 10/ 12   N/A
23 SSW MONTAUK P 2150            67 68  200/  6/  8 1013.3          5/ 7
15 E BARNEGAT LI 2230               71                N/A           4/ 7
HUDSON CANYON    2150            69 69              1013.3          6/ 7
KINGS POINT      2230            71 73              1012.2
EXECUTION ROCKS  2245            73     190/ 12/ 14   N/A
CENTRAL LI SOUND NOT AVBL
EASTERN LI SOUND NOT AVBL
ROBBINS REEF     2230            70     160/ 13/ 14 1012.6
$$


>>>>>>>>>>>>>>>>>>>>>>>>>>>> KEY <<<<<<<<<<<<<<<<<<<<<<<<<<<
>                                                          <
>     SKY/WX - Sky Condition/Present Weather               <
>     TMP    - Temperature in Fahrenheit                   <
>     DP     - Dew Point in Fahrenheit                     <
>     RH     - Relative Humidity in Percent                <
>     WIND   - Direction (from) and Speed in MPH           <
>     PRES   - Mean Sea Level Pressure (inches of Hg)      <
>     WCI    - Wind Chill Index                            <
>     VSB    - VISIBILITY IN MILES                         <
>     HX     - HEAT INDEX                                  <
>     TC     - TEMPERATURE IN CELSIUS                      <
>     VRB    - VARIABLE WIND DIRECTION                     <
>                                                          <
>>>>>>>>>>>>>>>>>>>>>>>>>>>> KEY <<<<<<<<<<<<<<<<<<<<<<<<<<<




USA.gov is the U.S. government's official web portal to all federal, state and local government web resources and services.